Weather History for Tel Aviv, Israel

Change the Weather History Date:

Wednesday, January 8, 2014

  Actual Average Record
Temperature  
Mean Temperature 58 °F -  
Max Temperature 68 °F 61 °F 78 °F (1997)
Min Temperature 47 °F 47 °F 46 °F (1997)
Degree Days  
Heating Degree Days 8    
Growing Degree Days 8 (Base 50)    
Moisture  
Dew Point 29 °F    
Average Humidity 34    
Maximum Humidity 54    
Minimum Humidity 12    
Precipitation  
Precipitation 0.00 in - - ()
Sea Level Pressure  
Sea Level Pressure 30.00 in    
Wind  
Wind Speed 6 mph ()    
Max Wind Speed 20 mph    
Max Gust Speed -    
Visibility 6.0 miles    
Events      
Averages and records for this station are not official NWS values.
T = Trace of Precipitation, MM = Missing Value Source: Averaged Metar Reports

Daily Weather History Graph

Daily Weather History Graph

Search for Another Location

Airport:

Trip Planner

Search our weather history database for the weather conditions in past years. The results will help you decide how hot, cold, wet, or windy it might be!

Date:

Astronomy

Jan. 08, 2014 Rise Set
Actual Time 6:41 AM IST 4:52 PM IST
Civil Twilight 6:15 AM IST 5:19 PM IST
Nautical Twilight 5:44 AM IST 5:49 PM IST
Astronomical Twilight 5:15 AM IST 6:19 PM IST
Moon 11:21 AM IST (1/8) No Moon Set
Length of Visible Light 11h 04m
Length of Day
10h 10m
First Quarter, 53% of the Moon is Illuminated
Jan 8
First Quarter
Jan 16
Full
Jan 24
Last Quarter
Jan 30
New
Feb 6
First Quarter

Hourly Weather History & Observations

Time (IST) Temp. Dew Point Humidity Pressure Visibility Wind Dir Wind Speed Gust Speed Precip Events Conditions
12:20 AM 50.0 °F 30.2 °F 47% 30.04 in - Variable 3.5 mph - N/A   Clear
12:50 AM 48.2 °F 30.2 °F 50% 30.01 in - Variable 3.5 mph - N/A   Clear
1:20 AM 50.0 °F 28.4 °F 43% 30.01 in - ENE 5.8 mph - N/A   Clear
1:50 AM 51.8 °F 26.6 °F 38% 30.01 in - ENE 5.8 mph - N/A   Clear
2:00 AM 52 °F 27 °F 26% 30.02 in 6 mi ENE 4.6 mph - -  
2:20 AM 51.8 °F 26.6 °F 38% 30.01 in - East 5.8 mph - N/A   Clear
2:50 AM 50.0 °F 26.6 °F 40% 30.01 in - ENE 5.8 mph - N/A   Clear
3:20 AM 51.8 °F 26.6 °F 38% 30.01 in - ENE 4.6 mph - N/A   Clear
3:50 AM 50.0 °F 28.4 °F 43% 30.01 in - Variable 1.2 mph - N/A   Clear
4:20 AM 50.0 °F 26.6 °F 40% 30.01 in - Variable 3.5 mph - N/A   Clear
4:50 AM 50.0 °F 26.6 °F 40% 30.01 in - ENE 4.6 mph - N/A   Clear
5:00 AM 48 °F 28 °F 32% 30.01 in 6 mi ENE 4.6 mph - -  
5:20 AM 51.8 °F 26.6 °F 38% 30.01 in - ENE 5.8 mph - N/A   Clear
5:50 AM 50.0 °F 26.6 °F 40% 30.01 in - ENE 5.8 mph - N/A   Clear
6:20 AM 50.0 °F 26.6 °F 40% 30.04 in - Variable 2.3 mph - N/A   Clear
6:50 AM 50.0 °F 26.6 °F 40% 30.04 in - Variable 1.2 mph - N/A   Clear
7:20 AM 48.2 °F 30.2 °F 50% 30.04 in - Variable 2.3 mph - N/A   Clear
7:50 AM 53.6 °F 28.4 °F 38% 30.04 in - East 4.6 mph - N/A   Clear
8:00 AM 53 °F 28 °F 25% 30.06 in 6 mi East 5.8 mph - -  
8:20 AM 57.2 °F 28.4 °F 33% 30.06 in - ESE 5.8 mph - N/A   Clear
8:50 AM 59.0 °F 30.2 °F 34% 30.06 in - East 6.9 mph - N/A   Clear
9:20 AM 60.8 °F 28.4 °F 29% 30.04 in - ESE 17.3 mph - N/A   Clear
9:50 AM 62.6 °F 30.2 °F 30% 30.04 in - ESE 18.4 mph - N/A   Clear
10:20 AM 62.6 °F 28.4 °F 27% 30.01 in - ESE 19.6 mph - N/A   Clear
10:50 AM 64.4 °F 28.4 °F 26% 30.01 in - ESE 16.1 mph - N/A   Clear
11:00 AM 64 °F 29 °F 16% 30.02 in 6 mi ESE 16.1 mph - -  
11:20 AM 64.4 °F 28.4 °F 26% 30.01 in - ESE 13.8 mph - N/A   Clear
11:50 AM 66.2 °F 28.4 °F 24% 29.98 in - SE 13.8 mph - N/A   Clear
12:20 PM 66.2 °F 28.4 °F 24% 29.98 in - ESE 13.8 mph - N/A   Clear
12:50 PM 68.0 °F 26.6 °F 21% 29.95 in - ESE 10.4 mph - N/A   Clear
1:20 PM 68.0 °F 26.6 °F 21% 29.95 in - ESE 11.5 mph - N/A   Clear
1:50 PM 68.0 °F 26.6 °F 21% 29.98 in - ESE 13.8 mph - N/A   Clear
2:00 PM 68 °F 27 °F 12% 29.98 in 6 mi ESE 13.8 mph - -  
2:20 PM 68.0 °F 28.4 °F 23% 29.98 in - ESE 18.4 mph - N/A   Clear
2:50 PM 68.0 °F 28.4 °F 23% 29.98 in - ESE 19.6 mph - N/A   Clear
3:20 PM 68.0 °F 28.4 °F 23% 29.95 in - ESE 18.4 mph - N/A   Clear
3:50 PM 68.0 °F 28.4 °F 23% 29.95 in - ESE 16.1 mph - N/A   Clear
4:20 PM 66.2 °F 26.6 °F 23% 29.98 in - SE 13.8 mph - N/A   Clear
4:50 PM 64.4 °F 28.4 °F 26% 29.98 in - ESE 8.1 mph - N/A   Clear
5:00 PM 65 °F 28 °F 15% 29.98 in 6 mi ESE 6.9 mph - -   Clear
5:20 PM 64.4 °F 28.4 °F 26% 29.98 in - ESE 5.8 mph - N/A   Clear
5:50 PM 62.6 °F 28.4 °F 27% 29.98 in - Variable 3.5 mph - N/A   Clear
6:20 PM 62.6 °F 30.2 °F 30% 29.98 in - ESE 5.8 mph - N/A   Clear
6:50 PM 62.6 °F 26.6 °F 26% 29.98 in - SE 8.1 mph - N/A   Clear
7:20 PM 55.4 °F 32.0 °F 41% 30.01 in - East 5.8 mph - N/A   Clear
7:50 PM 55.4 °F 32.0 °F 41% 30.01 in - ESE 5.8 mph - N/A   Clear
8:00 PM 55 °F 31 °F 28% 30.01 in 6 mi ESE 5.8 mph - -  
8:20 PM 51.8 °F 33.8 °F 50% 30.01 in - ENE 4.6 mph - N/A   Clear
8:50 PM 51.8 °F 33.8 °F 50% 30.01 in - East 4.6 mph - N/A   Clear
9:20 PM 51.8 °F 32.0 °F 47% 30.01 in - Variable 3.5 mph - N/A   Clear
9:50 PM 51.8 °F 32.0 °F 47% 30.01 in - Variable 1.2 mph - N/A   Clear
10:20 PM 50.0 °F 32.0 °F 50% 30.01 in - Variable 1.2 mph - N/A   Clear
10:50 PM 50.0 °F 33.8 °F 54% 29.98 in - Variable 2.3 mph - N/A   Clear
11:00 PM 51 °F 33 °F 38% 30.01 in 6 mi 1.2 mph - -   Scattered Clouds
11:20 PM 50.0 °F 32.0 °F 50% 29.98 in - Variable 1.2 mph - N/A   Clear
11:50 PM 50.0 °F 32.0 °F 50% 29.98 in - Variable 3.5 mph - N/A   Clear